Location: Asheville, NC
(35.6000°N, 82.5500°W)
Time: 19:49:32
(UTC-04:00)

Vanguard 1 - Pass Details

Date: 12 March 2018
Orbit: 650 x 3833 km, 34.3° (Epoch: 19 June)

Event Time Altitude Azimuth Distance (km) Brightness Sun altitude
Rises 09:47:18 0° 231° (SW) 7,090 14.2 23.3°
Reaches altitude 10° 09:51:39 10° 228° (SW) 6,356 14.0 24.1°
Maximum altitude 10:13:39 65° 153° (SSE) 4,056 14.0 28.2°
Drops below altitude 10° 10:34:19 10° 78° (ENE) 6,042 14.8 31.8°
Sets 10:38:17 0° 75° (ENE) 6,744 14.9 32.5°
